Regional Weather Roundup
Issued by NWS

Home | Current Version | Previous Version | Graphics & Text | Print | Product List | Glossary On
Versions: 1 2 3 4 5 6 7 8 9 10 11 12 13 14 15 16 17 18 19 20 21 22 23 24 25 26 27 28 29 30 31 32 33 34 35 36 37 38 39 40 41 42 43 44 45 46 47 48 49 50
000
ASUS43 KTOP 240308
RWRKS

WEATHER ROUNDUP FOR KANSAS
NATIONAL WEATHER SERVICE GOODLAND KS
1000 PM CDT WED JUL 23 2014

NOTE:  "FAIR" INDICATES FEW OR NO CLOUDS BELOW 12,000 FEET WITH NO
SIGNIFICANT WEATHER AND/OR OBSTRUCTIONS TO VISIBILITY.

KSZ001>006-013>018-027>032-041>047-240400-
NORTHWEST KANSAS

CITY           SKY/WX    TMP DP  RH WIND       PRES   REMARKS
GOODLAND       MOCLDY    77  63  61 SE10      30.19R
HAYS           CLEAR     75  61  60 E10       30.15R
HILL CITY      CLEAR     74  64  71 E8        30.15S
RUSSELL        CLEAR     73  64  73 E7        30.13R
$$

KSZ061>065-074>080-084>089-240400-
SOUTHWEST KANSAS

CITY           SKY/WX    TMP DP  RH WIND       PRES   REMARKS
DODGE CITY     CLEAR     77  69  76 E6        30.15R
ELKHART          N/A     76  65  69 SE6         N/A
GARDEN CITY    PTCLDY    78  69  73 E7        30.16R
GREAT BEND     CLEAR     79  64  61 E8        30.14R
LIBERAL        CLEAR     84  66  54 E12       30.17R
PRATT          CLEAR     79  64  61 E6        30.16R
$$

KSZ066>073-081>083-090>101-240400-
SOUTHEAST KANSAS

CITY           SKY/WX    TMP DP  RH WIND       PRES   REMARKS
CHANUTE        CLEAR     77  66  68 E6        30.10R
COFFEYVILLE    CLEAR     76  68  76 N5        30.08R
HUTCHINSON     CLEAR     74  64  71 E7        30.13R
MEDICINE LODGE   N/A     81  67  62 E6        30.11R
NEWTON         CLEAR     77  63  61 CALM      30.17R
PARSONS        CLEAR     75  67  76 NE3       30.10R
WICHITA INTL   PTCLDY    79  64  60 E6        30.12R
WICHITA JABRA  CLEAR     76  66  71 NE3       30.12R
WICHITA MCCONL CLEAR     80  64  58 E2        30.13R
WINFIELD       CLEAR     79  71  76 NE3       30.12R
$$

KSZ007>012-019>026-033>040-048>060-102>105-240400-
NORTHEAST KANSAS

CITY           SKY/WX    TMP DP  RH WIND       PRES   REMARKS
CONCORDIA      CLEAR     73  63  70 E3        30.15R
EMPORIA        CLEAR     74  64  71 NE6       30.13R
LAWRENCE       CLEAR     72  65  78 NE7       30.12R
MANHATTAN      CLEAR     75  63  66 NE5       30.13R
MARYSVILLE     CLEAR     72  63  73 NE5       30.15R
OLATHE IND     CLEAR     76  62  62 E6        30.13R
OLATHE EXE     CLEAR     76  62  62 NE6       30.12R
SALINA         CLEAR     82  61  48 E8        30.13R
TOPEKA BILLARD CLEAR     76  66  71 NE3       30.13R
TOPEKA FORBES  CLEAR     77  64  64 NE3       30.13R
$$


USA.gov is the U.S. government's official web portal to all federal, state and local government web resources and services.